• In Uzbekistan
  • List of Countries
  • For 7 days
  • Water Temperature
  • Satellite Maps
  • Weather Map
  • Weather Widgets
  • user-avatar
    Login

    Hourly Weather Arhus

    Today, 23 August, Wednesday

    Time Temperature Precipitation Wind Pressure Humidity
    00:00 +13°C° 0 mm 2 mps 762 mmHg 89%
    01:00 +11°C° 0 mm 3 mps 762 mmHg 91%
    02:00 +11°C° 0 mm 3 mps 762 mmHg 91%
    03:00 +11°C° 0 mm 3 mps 762 mmHg 91%
    04:00 +10°C° 0 mm 3 mps 762 mmHg 91%
    05:00 +11°C° 0 mm 3 mps 762 mmHg 87%
    06:00 +13°C° 0 mm 2 mps 762 mmHg 84%
    07:00 +14°C° 0 mm 2 mps 762 mmHg 80%
    08:00 +15°C° 0 mm 2 mps 762 mmHg 72%
    09:00 +17°C° 0 mm 2 mps 762 mmHg 63%
    10:00 +19°C° 0 mm 2 mps 762 mmHg 55%
    11:00 +19°C° 0 mm 2 mps 762 mmHg 52%
    12:00 +20°C° 0 mm 2 mps 762 mmHg 48%
    13:00 +21°C° 0 mm 2 mps 762 mmHg 45%
    14:00 +21°C° 0 mm 2 mps 761 mmHg 45%
    15:00 +21°C° 0 mm 2 mps 761 mmHg 45%
    16:00 +21°C° 0 mm 2 mps 761 mmHg 46%
    17:00 +20°C° 0 mm 2 mps 761 mmHg 52%
    18:00 +19°C° 0 mm 2 mps 760 mmHg 59%
    19:00 +17°C° 0 mm 2 mps 760 mmHg 66%
    20:00 +16°C° 0 mm 2 mps 760 mmHg 67%
    21:00 +15°C° 0 mm 2 mps 760 mmHg 69%
    22:00 +14°C° 0 mm 2 mps 760 mmHg 70%
    23:00 +14°C° 0 mm 2 mps 760 mmHg 72%

    Tomorrow, 24 August, Thursday

    Time Temperature Precipitation Wind Pressure Humidity
    00:00 +13°C° 0 mm 3 mps 760 mmHg 73%
    01:00 +13°C° 0 mm 3 mps 759 mmHg 74%
    02:00 +13°C° 0 mm 3 mps 759 mmHg 76%
    03:00 +13°C° 0 mm 3 mps 759 mmHg 78%
    04:00 +13°C° 0 mm 3 mps 758 mmHg 80%
    05:00 +13°C° 0 mm 4 mps 758 mmHg 80%
    06:00 +14°C° 0 mm 4 mps 758 mmHg 80%
    07:00 +15°C° 0 mm 4 mps 757 mmHg 79%
    08:00 +18°C° 0 mm 4 mps 757 mmHg 74%
    09:00 +19°C° 0 mm 5 mps 757 mmHg 69%
    10:00 +20°C° 0 mm 5 mps 757 mmHg 64%
    11:00 +20°C° 0.2 mm 5 mps 756 mmHg 66%
    12:00 +20°C° 0.2 mm 5 mps 756 mmHg 68%
    13:00 +20°C° 0.2 mm 5 mps 756 mmHg 69%
    14:00 +20°C° 0.2 mm 5 mps 756 mmHg 73%
    15:00 +20°C° 0.2 mm 5 mps 756 mmHg 76%
    16:00 +20°C° 0.2 mm 4 mps 756 mmHg 80%
    17:00 +19°C° 0.1 mm 5 mps 756 mmHg 81%
    18:00 +17°C° 0.1 mm 5 mps 756 mmHg 83%
    19:00 +17°C° 0.1 mm 6 mps 756 mmHg 85%
    20:00 +16°C° 0 mm 6 mps 756 mmHg 87%
    21:00 +15°C° 0 mm 6 mps 756 mmHg 90%
    22:00 +14°C° 0 mm 6 mps 756 mmHg 93%
    23:00 +14°C° 0 mm 6 mps 756 mmHg 91%

    Day after tomorrow, 25 August, Friday

    Time Temperature Precipitation Wind Pressure Humidity
    00:00 +14°C° 0 mm 6 mps 756 mmHg 90%
    01:00 +15°C° 0 mm 6 mps 756 mmHg 88%
    02:00 +15°C° 0 mm 6 mps 756 mmHg 87%
    03:00 +15°C° 0 mm 6 mps 757 mmHg 86%
    04:00 +15°C° 0 mm 6 mps 757 mmHg 84%
    05:00 +15°C° 0 mm 6 mps 757 mmHg 84%
    06:00 +15°C° 0 mm 6 mps 757 mmHg 83%
    07:00 +15°C° 0 mm 6 mps 757 mmHg 82%
    08:00 +16°C° 0 mm 6 mps 758 mmHg 77%
    09:00 +17°C° 0 mm 7 mps 758 mmHg 72%
    10:00 +18°C° 0 mm 7 mps 758 mmHg 66%
    11:00 +20°C° 0 mm 7 mps 758 mmHg 65%
    12:00 +20°C° 0 mm 7 mps 758 mmHg 63%
    13:00 +21°C° 0 mm 7 mps 758 mmHg 61%
    14:00 +21°C° 0 mm 7 mps 758 mmHg 63%
    15:00 +21°C° 0 mm 7 mps 758 mmHg 64%
    16:00 +20°C° 0 mm 7 mps 758 mmHg 66%
    17:00 +18°C° 0 mm 7 mps 758 mmHg 71%
    18:00 +17°C° 0 mm 6 mps 758 mmHg 75%
    19:00 +16°C° 0 mm 6 mps 758 mmHg 80%
    20:00 +16°C° 0 mm 6 mps 759 mmHg 84%
    21:00 +15°C° 0 mm 6 mps 759 mmHg 88%
    22:00 +14°C° 0 mm 5 mps 759 mmHg 92%
    23:00 +14°C° 0 mm 5 mps 759 mmHg 93%

    26 August, Saturday

    Time Temperature Precipitation Wind Pressure Humidity
    00:00 +14°C° 0 mm 5 mps 759 mmHg 94%
    01:00 +14°C° 0 mm 5 mps 759 mmHg 95%
    02:00 +14°C° 0 mm 5 mps 759 mmHg 95%
    03:00 +14°C° 0 mm 5 mps 759 mmHg 95%
    04:00 +14°C° 0 mm 4 mps 759 mmHg 95%
    05:00 +14°C° 0 mm 4 mps 759 mmHg 92%
    06:00 +15°C° 0 mm 4 mps 759 mmHg 90%
    07:00 +15°C° 0 mm 4 mps 759 mmHg 88%
    08:00 +18°C° 0 mm 4 mps 759 mmHg 81%
    09:00 +19°C° 0 mm 3 mps 759 mmHg 75%
    10:00 +20°C° 0 mm 3 mps 759 mmHg 69%
    11:00 +20°C° 0 mm 3 mps 759 mmHg 67%
    12:00 +21°C° 0 mm 3 mps 759 mmHg 65%
    13:00 +21°C° 0 mm 3 mps 759 mmHg 63%
    14:00 +21°C° 0 mm 3 mps 758 mmHg 63%
    15:00 +22°C° 0 mm 3 mps 758 mmHg 63%
    16:00 +22°C° 0 mm 4 mps 758 mmHg 63%
    17:00 +21°C° 0.2 mm 3 mps 757 mmHg 69%
    18:00 +19°C° 0.2 mm 3 mps 757 mmHg 75%
    19:00 +18°C° 0.2 mm 3 mps 757 mmHg 81%
    20:00 +18°C° 0.4 mm 4 mps 757 mmHg 84%
    21:00 +18°C° 0.4 mm 4 mps 756 mmHg 86%
    22:00 +17°C° 0.4 mm 4 mps 756 mmHg 88%
    23:00 +17°C° 0.5 mm 4 mps 756 mmHg 90%

    27 August, Sunday

    Time Temperature Precipitation Wind Pressure Humidity
    00:00 +15°C° 0.5 mm 4 mps 756 mmHg 91%
    01:00 +15°C° 0.5 mm 4 mps 755 mmHg 92%
    02:00 +14°C° 0.1 mm 4 mps 755 mmHg 93%
    03:00 +14°C° 0.1 mm 4 mps 755 mmHg 94%
    04:00 +13°C° 0.1 mm 4 mps 755 mmHg 95%
    05:00 +14°C° 0 mm 4 mps 755 mmHg 93%
    06:00 +14°C° 0 mm 4 mps 755 mmHg 91%
    07:00 +14°C° 0 mm 5 mps 755 mmHg 90%
    08:00 +16°C° 0 mm 5 mps 755 mmHg 83%
    09:00 +17°C° 0 mm 5 mps 755 mmHg 77%
    10:00 +19°C° 0 mm 5 mps 755 mmHg 70%
    11:00 +19°C° 0.2 mm 6 mps 755 mmHg 69%
    12:00 +20°C° 0.2 mm 6 mps 755 mmHg 68%
    13:00 +20°C° 0.2 mm 6 mps 755 mmHg 67%
    14:00 +20°C° 0.1 mm 6 mps 755 mmHg 67%
    15:00 +20°C° 0.1 mm 6 mps 755 mmHg 66%
    16:00 +20°C° 0.1 mm 6 mps 755 mmHg 66%
    17:00 +19°C° 0.1 mm 5 mps 756 mmHg 70%
    18:00 +17°C° 0.1 mm 5 mps 756 mmHg 75%
    19:00 +17°C° 0.1 mm 4 mps 756 mmHg 80%
    20:00 +15°C° 0 mm 4 mps 756 mmHg 83%
    21:00 +14°C° 0 mm 4 mps 756 mmHg 86%
    22:00 +14°C° 0 mm 4 mps 756 mmHg 89%
    23:00 +13°C° 0 mm 4 mps 756 mmHg 90%

    28 August, Monday

    Time Temperature Precipitation Wind Pressure Humidity
    00:00 +13°C° 0 mm 4 mps 756 mmHg 92%
    01:00 +13°C° 0 mm 4 mps 757 mmHg 94%
    02:00 +12°C° 0 mm 3 mps 757 mmHg 94%
    03:00 +12°C° 0 mm 3 mps 757 mmHg 94%
    04:00 +12°C° 0 mm 3 mps 757 mmHg 95%
    05:00 +12°C° 0 mm 3 mps 757 mmHg 93%
    06:00 +13°C° 0 mm 3 mps 757 mmHg 91%
    07:00 +13°C° 0 mm 3 mps 758 mmHg 90%
    08:00 +16°C° 0 mm 3 mps 758 mmHg 82%
    09:00 +17°C° 0 mm 3 mps 758 mmHg 75%
    10:00 +18°C° 0 mm 3 mps 758 mmHg 67%
    11:00 +19°C° 0 mm 3 mps 758 mmHg 65%
    12:00 +20°C° 0 mm 4 mps 758 mmHg 63%
    13:00 +20°C° 0 mm 4 mps 758 mmHg 61%
    14:00 +20°C° 0 mm 4 mps 758 mmHg 61%
    15:00 +21°C° 0 mm 4 mps 758 mmHg 61%
    16:00 +21°C° 0 mm 4 mps 758 mmHg 61%
    17:00 +20°C° 0 mm 3 mps 758 mmHg 67%
    18:00 +19°C° 0 mm 3 mps 758 mmHg 74%
    19:00 +18°C° 0 mm 3 mps 758 mmHg 80%
    20:00 +17°C° 0.2 mm 4 mps 758 mmHg 83%
    21:00 +17°C° 0.2 mm 4 mps 758 mmHg 86%
    22:00 +16°C° 0.2 mm 5 mps 758 mmHg 89%
    23:00 +16°C° 0.6 mm 5 mps 758 mmHg 90%
    Show more